KTXEAGLE7 Weather Reports


time (UTC)temp
C
wind
direction
speed
KPH
gust
KPH
rain 1hr
cm
rain 24hr
cm
rain mn
cm
humidity
%
barometer
mb
20260906131506 26 112 3.2 6.4 0.00 0.00 0.00 99 1014.3
20260906130005 25 121 3.2 6.4 0.00 0.00 0.00 100 1014.3
20260906124603 25 123 1.6 3.2 0.00 0.00 0.00 100 1014.1
20260906123158 25 123 0.0 3.2 0.00 0.00 0.00 100 1014.0
20260906113047 25 99 3.2 6.4 0.00 0.00 0.00 99 1012.8
20260906111542 25 81 3.2 8.0 0.00 0.00 0.00 99 1012.8
20260906110041 25 100 3.2 6.4 0.00 0.00 0.00 99 1012.6
20260906104540 25 95 0.0 3.2 0.00 0.00 0.00 99 1012.6
20260906103040 25 95 0.0 3.2 0.00 0.00 0.00 99 1012.6
20260906101540 25 95 3.2 4.8 0.00 0.00 0.00 98 1012.5
20260906100038 25 204 0.0 0.0 0.00 0.00 0.00 98 1012.5
20260906094537 25 204 0.0 0.0 0.00 0.00 0.00 98 1012.4
20260906093037 25 204 0.0 0.0 0.00 0.00 0.00 98 1012.3
20260906091534 26 204 0.0 0.0 0.00 0.00 0.00 97 1012.4
20260906090033 26 204 0.0 0.0 0.00 0.00 0.00 97 1012.4
20260906084532 26 204 0.0 0.0 0.00 0.00 0.00 97 1012.3
20260906083039 26 204 0.0 0.0 0.00 0.00 0.00 97 1012.2
20260906081535 26 204 0.0 1.6 0.00 0.00 0.00 97 1012.3
20260906080029 26 204 0.0 3.2 0.00 0.00 0.00 96 1012.5
20260906074527 26 204 1.6 4.8 0.00 0.00 0.00 96 1012.5
20260906073025 26 204 3.2 6.4 0.00 0.00 0.00 95 1012.6
20260906071523 26 203 3.2 6.4 0.00 0.00 0.00 95 1012.8
20260906070022 26 231 3.2 8.0 0.00 0.00 0.00 96 1012.9
20260906064528 26 231 3.2 6.4 0.00 0.00 0.00 96 1013.2
20260906063022 26 231 3.2 4.8 0.00 0.00 0.00 96 1013.3
20260906061519 26 222 3.2 8.0 0.00 0.00 0.00 96 1013.2
20260906060019 26 218 4.8 6.4 0.00 0.00 0.00 96 1013.2
20260906054517 26 182 3.2 6.4 0.00 0.00 0.00 96 1013.1
20260906053015 26 182 4.8 6.4 0.00 0.00 0.00 95 1012.9
20260906051512 26 190 4.8 9.7 0.00 0.00 0.00 95 1013.0
20260906050135 26 191 3.2 6.4 0.00 0.00 0.00 95 1013.2
20260906044510 26 177 1.6 6.4 0.00 0.00 0.00 95 1013.3
20260906043011 26 142 0.0 0.0 0.00 0.00 0.00 94 1013.4
20260906041510 26 142 0.0 0.0 0.00 0.00 0.00 94 1013.6
20260906040009 26 142 0.0 0.0 0.00 0.00 0.00 94 1013.4
20260906034508 26 142 0.0 0.0 0.00 0.00 0.00 93 1013.3
20260906033008 26 142 0.0 0.0 0.00 0.00 0.00 92 1013.2
20260906031506 26 142 0.0 0.0 0.00 0.00 0.00 91 1013.3
20260906030006 27 142 0.0 6.4 0.00 0.00 0.00 90 1013.2
20260906024507 27 142 4.8 8.0 0.00 0.00 0.00 88 1012.8
20260906023008 27 153 4.8 8.0 0.00 0.00 0.00 87 1012.6
20260906021504 27 123 3.2 6.4 0.00 0.00 0.00 86 1012.3
20260906020004 27 108 3.2 4.8 0.00 0.00 0.00 85 1012.0
20260906014508 28 114 4.8 11.3 0.00 0.00 0.00 84 1011.9
20260906013008 28 97 3.2 6.4 0.00 0.00 0.00 84 1011.5
20260906011503 28 121 3.2 9.7 0.00 0.00 0.00 83 1011.5
20260906010002 28 116 4.8 11.3 0.00 0.00 0.00 80 1011.4
20260906004502 29 129 4.8 14.5 0.00 0.00 0.00 78 1011.5
20260906003004 30 131 9.7 14.5 0.00 0.00 0.00 77 1011.5
20260906001500 30 101 8.0 16.1 0.00 0.00 0.00 75 1011.8
20260906000101 30 132 6.4 16.1 0.00 0.00 0.00 74 1011.8
20260905234614 31 123 11.3 16.1 0.00 0.00 0.00 73 1011.6
20260905233100 31 142 11.3 17.7 0.00 0.00 0.00 73 1011.7
20260905231559 31 121 14.5 20.9 0.00 0.00 0.00 71 1011.7
20260905230058 32 134 12.9 24.1 0.00 0.00 0.00 67 1011.4
20260905224602 32 129 17.7 25.7 0.00 0.00 0.00 65 1011.3
20260905223057 32 131 11.3 20.9 0.00 0.00 0.00 70 1011.3
20260905221556 32 134 12.9 19.3 0.00 0.00 0.00 70 1011.3
20260905220055 32 122 12.9 20.9 0.00 0.00 0.00 68 1011.3
20260905214604 33 150 12.9 25.7 0.00 0.00 0.00 63 1011.3
20260905213053 33 128 16.1 25.7 0.00 0.00 0.00 62 1011.4
20260905211551 33 151 20.9 29.0 0.00 0.00 0.00 61 1011.4
20260905210050 34 113 11.3 20.9 0.00 0.00 0.00 58 1011.4
20260905204549 34 146 9.7 22.5 0.00 0.00 0.00 57 1011.4
20260905203046 34 134 8.0 14.5 0.00 0.00 0.00 56 1011.7
20260905201542 33 52 1.6 14.5 0.00 0.00 0.00 61 1011.9
20260905200045 34 161 4.8 11.3 0.00 0.00 0.00 60 1012.3
20260905194536 33 324 1.6 14.5 0.00 0.00 0.00 59 1012.5
20260905193033 33 132 6.4 14.5 0.00 0.00 0.00 60 1013.0
20260905191532 33 178 6.4 16.1 0.00 0.00 0.00 62 1013.1
20260905190030 33 275 6.4 12.9 0.00 0.00 0.00 63 1013.2
20260905184535 32 300 3.2 14.5 0.00 0.00 0.00 64 1013.2
20260905183028 32 115 6.4 14.5 0.00 0.00 0.00 66 1013.4
20260905181523 32 181 6.4 14.5 0.00 0.00 0.00 67 1013.7
20260905180022 32 215 6.4 17.7 0.00 0.00 0.00 70 1014.1
20260905174531 32 171 6.4 14.5 0.00 0.00 0.00 72 1014.3
20260905173025 31 155 4.8 14.5 0.00 0.00 0.00 71 1014.4
20260905171520 32 134 3.2 16.1 0.00 0.00 0.00 66 1014.6
20260905170017 32 117 4.8 16.1 0.00 0.00 0.00 68 1014.7
20260905164514 31 167 4.8 14.5 0.00 0.00 0.00 71 1014.9
20260905163011 31 193 1.6 9.7 0.00 0.00 0.00 75 1014.9
20260905161509 31 114 3.2 11.3 0.00 0.00 0.00 76 1014.9
20260905160013 31 204 4.8 14.5 0.00 0.00 0.00 78 1015.0
20260905154505 30 209 4.8 11.3 0.00 0.00 0.00 83 1014.9
20260905153008 30 265 4.8 11.3 0.00 0.00 0.00 84 1014.8
20260905151502 29 170 6.4 11.3 0.00 0.00 0.00 86 1014.9
20260905150101 29 182 1.6 9.7 0.00 0.00 0.00 88 1015.0
20260905144557 29 140 4.8 8.0 0.00 0.00 0.00 89 1015.0
20260905143055 28 138 0.0 6.4 0.00 0.00 0.00 91 1014.9
20260905141608 27 99 0.0 4.8 0.00 0.00 0.00 95 1015.0
20260905140058 27 84 1.6 4.8 0.00 0.00 0.00 98 1014.9
20260905134557 26 97 1.6 6.4 0.00 0.00 0.00 100 1014.8
20260905133052 25 51 3.2 6.4 0.00 0.00 0.00 100 1014.6